Location: Unspecified
(0.0000°N, 0.0000°E)
Time: 03:56:56
(UTC+00:00)

COSMOS 1275 DEB - Visible Passes

Search period start: 14 February 2026 00:00
Search period end: 24 February 2026 00:00
Orbit: 766 x 822 km, 82.7° (Epoch: 2 September)

Date Brightness Start Highest point End Pass type
(mag) Time Alt. Az. Time Alt. Az. Time Alt. Az.
14 Feb ? 19:03:47 10° N 19:08:07 73° W 19:12:48 10° S visible
15 Feb ? 19:32:34 10° NW 19:36:04 23° W 19:39:45 10° SSW visible
17 Feb ? 18:48:53 10° NNW 18:53:15 56° W 18:57:57 10° S visible
18 Feb ? 05:29:06 10° ESE 05:29:45 10° E 05:30:23 10° E visible
18 Feb ? 19:17:48 10° NW 19:20:58 19° W 19:24:19 10° SW visible
20 Feb ? 18:33:19 10° NNW 18:37:41 45° W 18:42:22 10° SSW visible
21 Feb ? 05:12:10 10° ESE 05:14:03 13° E 05:15:55 10° ENE visible
21 Feb ? 19:02:22 10° WNW 19:05:10 16° W 19:08:05 10° SW visible
22 Feb ? 05:37:20 10° SSE 05:41:31 38° E 05:45:25 10° NNE visible
